Location: Street
(51.1247°N, 2.7429°W)
Time: 09:28:50
(UTC+01:00)

PCSat - Pass Details

Date: 27 March 2023
Orbit: 783 x 794 km, 67.1° (Epoch: 29 May)

Event Time Altitude Azimuth Distance (km) Brightness Sun altitude
Rises 23:13:47 0° 317° (NW) 3,298 14.0 -30.1°
Reaches altitude 10° 23:16:56 10° 335° (NNW) 2,369 12.9 -30.4°
Maximum altitude 23:20:47 19° 21° (NNE) 1,811 11.7 -30.7°
Enters shadow 23:22:34 17° 45° (NE) 1,945 11.7 -30.9°
